Probability
0 1 1 0 1 2 4 6 9 10 9 9 8 7 5 3 4 6 7 6 6 7 7 6 4 4 5 4 2 0 0 0 0 0 0 0 0 0 1 1 1 0 0
1 2 2 1 1 3 4 5 7 9 10 11 11 10 7 4 3 4 5 5 6 7 7 5 3 3 5 5 3 1 1 1 0 0 0 0 0 0 0 0 0 0 0
1 2 3 3 3 4 5 5 5 6 8 11 12 12 11 8 5 3 3 4 6 8 7 4 2 3 5 6 5 4 3 2 1 0 0 0 0 0 0 0 0 0 0
1 2 2 2 2 3 5 5 4 4 6 8 10 12 13 13 10 6 4 4 7 9 8 4 3 5 7 6 5 5 4 3 1 0 0 0 0 0 0 0 0 0 0
0 1 1 1 1 1 3 3 3 3 5 7 8 10 12 14 13 10 8 7 8 10 9 5 4 5 6 6 5 3 3 3 2 0 0 0 0 0 0 0 0 0 0
0 0 0 0 0 1 1 1 1 3 4 6 8 9 11 13 14 13 13 12 11 10 9 7 5 5 5 5 3 2 2 2 1 0 0 0 0 0 0 0 0 0 0
0 0 0 0 1 2 2 1 2 3 4 5 6 8 9 11 13 13 13 14 14 13 11 9 7 6 5 4 3 2 1 1 0 0 0 0 0 0 0 0 0 0 0
0 0 0 0 1 3 3 3 4 5 5 4 4 6 8 10 10 10 11 12 14 15 13 10 8 8 5 3 3 3 2 0 0 0 0 0 0 0 1 0 0 0 0
0 0 0 0 0 1 1 2 3 4 4 3 4 5 7 9 9 8 8 10 12 14 13 10 10 8 6 4 4 3 1 0 0 0 0 0 0 0 0 0 0 0 0
0 0 0 0 0 0 0 1 1 2 2 3 3 4 6 7 7 6 6 8 11 12 11 11 10 9 6 4 3 2 1 0 0 0 0 0 0 0 0 0 0 0 0
1 0 0 0 0 0 0 0 0 0 1 2 2 3 4 5 5 4 3 5 8 9 8 9 8 7 6 4 2 1 0 0 0 0 0 0 0 0 0 0 0 0 0
2 1 0 0 0 0 0 0 0 0 0 1 1 1 2 3 3 2 1 3 5 5 5 5 4 4 3 2 1 0 0 0 0 0 0 0 0 0 0 1 1 1 1
2 1 0 0 0 0 0 0 0 0 0 0 0 0 1 1 2 2 2 2 3 3 2 2 2 1 1 1 0 0 0 0 0 0 0 0 0 0 1 1 1 3 3
1 0 0 0 0 0 0 0 0 0 0 0 0 0 0 1 1 1 2 2 1 1 1 1 1 0 0 0 0 0 0 0 0 0 0 0 0 0 1 1 2 3 4
0 0 0 0 0 0 0 0 0 0 0 0 0 0 0 0 0 0 1 1 0 0 0 0 0 0 0 0 0 0 0 0 0 0 0 0 0 0 0 0 1 2 3
0 0 0 0 0 0 0 0 0 0 0 0 0 0 0 0 0 0 0 0 0 0 0 0 0 0 0 0 0 0 0 0 0 0 0 0 0 0 0 0 0 1 2
0 0 0 0 0 0 0 0 0 0 0 0 0 0 0 0 0 0 0 0 0 0 0 0 0 0 0 0 0 0 0 0 0 0 0 0 0 0 0 0 0 1 2
0 0 0 0 0 0 0 0 0 0 0 0 0 0 0 0 0 0 0 0 0 0 0 0 0 0 0 0 0 0 0 0 0 0 0 0 0 0 0 0 0 1 2
0 0 0 0 0 0 0 0 0 0 0 0 0 0 0 0 0 0 0 0 0 0 0 0 0 0 0 0 0 0 0 0 0 0 0 0 0 0 0 0 0 1 2
0 0 0 0 0 0 0 0 0 0 0 0 0 0 0 0 0 0 0 0 0 0 0 0 0 0 0 0 0 0 0 0 0 0 0 0 0 0 0 0 0 0 1
0 0 0 0 0 0 0 0 0 0 0 0 0 0 0 0 0 0 0 0 0 0 0 0 0 0 0 0 0 0 0 0 0 0 0 0 0 0 0 0 0 0 0
0 0 0 0 0 0 0 0 0 0 0 0 0 0 0 0 0 0 0 0 0 0 0 0 0 0 0 0 0 0 0 0 0 0 0 0 0 0 0 0 0 0 0
0 0 0 0 0 0 0 0 0 0 0 0 0 0 0 0 0 0 0 0 0 0 0 0 0 0 0 0 0 0 0 0 0 0 0 0 0 0 0 0 0 0 0
0 0 0 0 0 0 0 0 0 0 0 0 0 0 0 0 0 0 0 0 0 0 0 0 0 0 0 0 0 0 0 0 0 0 0 0 0 0 0 0 0 0 0
0 0 0 0 0 0 0 0 0 0 0 0 0 0 0 0 0 0 0 0 0 0 0 0 0 0 0 0 0 0 0 0 0 0 0 0 0 0 0 0 0 0 0
0 0 0 0 0 0 0 0 0 0 0 0 0 0 0 0 0 0 0 0 0 0 0 0 0 0 0 0 0 0 0 0 0 0 0 0 0 0 0 0 0 0 0
Wind_Speed
2 3 3 2 3 4 5 6 6 7 7 6 7 6 7 7 7 7 7 8 8 8 9 9 10 10 11 11 11 11 11 10 10 11 11 11 11 12 11 11 10 7 11
2 2 2 2 3 4 5 6 6 6 6 6 7 6 6 6 6 6 6 7 8 8 8 9 9 9 10 10 11 10 11 10 10 10 9 9 10 10 11 10 10 7 11
1 2 2 2 3 4 5 6 6 6 6 6 6 6 5 5 5 5 6 6 6 7 7 8 8 9 9 9 9 10 10 10 10 10 8 4 5 9 10 10 10 10 10
2 2 2 2 3 4 5 5 6 6 6 5 5 5 5 5 5 4 5 5 5 6 6 7 8 8 8 8 9 9 10 10 9 9 4 3 3 7 9 9 8 9 9
3 3 2 3 4 4 5 5 5 5 5 5 5 5 4 5 4 4 4 4 5 5 6 6 7 7 7 8 8 8 9 9 9 6 3 3 2 6 7 7 8 8 8
3 3 3 4 4 5 5 5 4 5 4 5 4 4 4 4 4 3 3 4 4 5 5 6 6 6 7 7 8 8 8 9 7 4 3 2 2 5 7 7 7 7 7
3 3 3 5 5 5 5 5 5 4 4 4 5 4 4 4 4 3 3 3 4 4 5 5 6 7 7 7 7 7 8 8 5 3 2 1 1 4 6 6 6 6 6
3 4 4 5 6 5 5 5 6 5 5 4 4 5 5 4 4 3 3 3 3 4 5 5 6 6 7 7 7 8 8 7 5 3 2 1 2 4 5 6 6 6 6
4 4 4 4 5 7 7 7 6 6 6 5 5 5 5 5 4 3 3 3 3 3 4 5 5 6 6 7 7 7 7 7 3 2 1 1 2 4 5 5 5 5 6
4 4 4 4 4 4 4 7 7 7 7 7 7 7 7 7 6 5 3 3 3 3 3 5 5 6 6 6 7 7 7 5 2 1 1 1 2 4 4 5 5 5 5
4 3 3 3 4 3 3 5 6 6 7 6 6 7 6 4 4 4 5 4 3 3 3 4 5 5 6 5 6 6 5 2 2 1 0 1 2 3 4 4 4 4 4
2 2 2 3 3 3 3 3 3 3 4 4 4 4 3 3 3 4 5 5 4 3 3 4 5 4 4 2 3 5 2 2 1 0 0 1 2 3 3 3 4 4 4
1 2 2 2 2 2 2 2 2 2 2 3 4 4 3 3 2 3 2 2 3 3 2 3 4 2 2 2 2 2 2 2 1 0 1 1 2 2 3 3 3 3 3
1 1 2 2 2 2 2 2 2 2 2 2 3 3 3 2 2 2 2 2 2 2 2 2 2 2 2 2 2 3 2 2 1 0 1 1 0 1 2 2 2 2 3
0 1 1 2 2 2 2 2 2 1 1 1 2 2 3 2 2 2 2 2 2 2 2 1 1 2 2 2 2 3 2 2 1 1 1 2 2 1 0 1 1 1 2
1 0 1 1 2 2 2 1 1 1 1 1 2 2 2 1 1 1 2 2 2 2 1 1 1 2 1 2 2 2 2 2 1 1 1 1 2 2 2 1 1 1 1
1 0 1 1 2 2 2 2 1 1 1 1 1 2 2 2 2 2 2 2 2 1 1 1 2 2 2 2 2 1 1 2 2 2 1 1 1 2 2 2 2 1 1
0 1 1 2 2 2 2 1 1 1 2 1 1 1 2 2 2 2 1 1 1 1 1 1 1 2 2 2 1 1 1 1 1 1 1 1 1 1 2 3 2 2 2
1 1 2 2 2 2 2 2 2 2 2 2 2 2 2 2 2 2 1 1 1 1 2 1 1 1 1 1 1 1 1 1 1 1 2 1 1 1 1 2 3 3 2
1 2 2 2 2 2 1 1 2 3 2 2 2 2 2 2 2 2 1 2 2 1 2 2 1 2 1 1 1 1 1 1 1 1 1 0 1 1 1 1 1 2 3
3 3 2 2 2 2 1 0 0 1 1 1 1 2 2 2 2 2 1 1 1 1 1 1 1 1 1 1 1 1 1 1 1 1 0 0 0 0 1 1 1 1 1
2 2 1 1 1 1 0 0 0 0 1 1 1 2 2 2 2 1 2 1 1 1 2 1 1 1 1 1 1 1 0 1 0 0 0 1 1 0 0 1 1 0 0
2 1 0 0 1 1 1 1 2 1 1 1 2 2 2 2 1 1 1 1 1 0 0 0 1 1 0 0 1 1 2 2 1 1 0 0 1 1 0 0 1 1 0
2 2 2 1 1 1 1 1 2 1 0 1 1 1 2 2 1 1 1 0 0 0 0 0 0 1 1 1 0 0 0 1 2 0 1 1 0 0 1 1 1 1 0
2 2 2 2 1 1 1 0 1 0 1 1 1 1 2 2 2 1 1 0 0 0 1 1 0 1 1 1 1 1 1 1 1 1 1 1 1 1 1 1 1 1 0
3 3 2 2 2 1 1 0 0 0 1 1 2 2 2 1 1 2 1 1 1 1 1 1 1 1 1 1 1 1 1 1 1 1 2 1 1 2 1 1 1 1 1
Wind_Direction
321 320 318 30 47 64 68 64 62 68 72 75 79 82 84 92 102 109 112 112 111 110 108 109 112 109 105 102 100 98 97 97 99 98 100 101 101 99 97 93 91 86 94
286 307 325 39 57 74 74 69 65 69 70 72 73 76 80 86 96 107 110 111 113 112 111 111 113 111 107 103 102 102 102 99 96 94 94 98 101 101 99 96 96 95 96
358 341 337 47 78 85 80 74 68 67 69 68 69 72 77 83 87 98 105 107 114 116 114 112 110 111 109 107 106 106 105 103 97 90 83 72 92 103 104 102 102 101 101
14 5 0 44 98 94 86 78 71 67 66 67 67 65 71 81 87 90 102 107 111 117 117 117 114 111 112 113 111 109 109 105 101 93 79 72 82 105 109 109 108 107 104
25 13 6 73 99 94 88 80 75 71 67 68 68 63 69 73 82 89 99 108 111 114 121 119 116 115 114 115 116 114 111 108 102 90 81 77 77 108 113 115 113 112 109
31 19 19 70 87 84 80 78 72 70 66 61 62 62 67 67 70 81 86 106 115 115 122 124 122 119 118 116 117 120 116 109 99 84 79 76 82 114 119 120 119 119 117
42 25 28 53 72 77 74 71 64 62 60 58 55 54 56 59 61 71 81 103 113 126 126 125 130 127 124 122 121 118 116 108 96 91 88 82 102 118 123 122 128 129 128
53 36 34 47 55 64 64 60 54 52 51 50 48 47 45 48 54 69 75 97 101 108 121 126 132 131 130 130 127 119 112 107 103 101 101 106 125 132 127 125 127 130 132
48 40 29 34 45 53 57 55 51 47 44 40 37 38 36 38 47 57 63 79 96 110 119 122 125 128 129 133 130 125 115 105 106 106 114 135 135 135 124 123 128 128 124
42 37 28 30 40 42 44 47 47 45 42 39 35 34 36 33 30 36 33 51 79 91 118 128 128 127 128 126 125 118 113 101 97 101 108 142 136 136 129 125 122 123 123
30 23 25 32 35 38 44 42 39 40 37 37 32 30 31 25 20 18 19 35 53 66 88 117 125 120 119 118 116 111 105 96 100 91 134 126 154 153 135 132 131 130 129
1 359 16 27 32 39 40 35 28 35 33 32 31 25 21 21 19 22 17 25 37 44 68 88 97 100 98 95 100 98 94 99 99 102 112 122 160 166 150 142 132 131 135
323 5 12 20 30 49 40 38 28 28 32 30 30 28 26 24 14 15 14 15 17 34 50 59 58 55 81 88 94 97 97 95 85 35 49 108 178 181 162 152 140 131 132
32 15 12 21 37 45 48 46 43 33 31 30 29 31 33 24 16 9 25 21 29 30 43 53 70 62 78 93 107 112 108 102 87 42 24 59 154 216 183 162 151 140 133
26 349 14 36 45 49 51 34 45 37 32 30 35 32 43 34 26 29 28 26 32 36 48 59 77 82 79 91 94 106 105 105 94 79 32 50 47 15 285 189 181 174 158
238 279 38 60 57 59 60 48 34 34 32 40 37 35 39 52 53 46 46 33 25 30 37 65 98 95 79 89 90 104 114 114 93 80 58 35 36 25 1 351 333 283 201
225 124 90 89 68 68 60 43 39 35 39 41 28 29 45 61 64 63 55 39 16 23 40 64 64 88 89 79 73 86 104 97 92 84 74 57 19 6 358 358 344 336 340
135 86 61 65 62 58 55 42 41 40 48 34 28 35 46 52 56 63 55 32 12 34 55 72 81 85 91 96 78 44 66 106 98 87 83 74 62 26 355 12 352 354 19
131 101 73 62 66 57 53 40 47 48 45 37 32 34 40 47 49 61 54 30 31 49 52 52 64 87 108 107 111 75 54 80 103 90 85 80 84 67 8 8 11 6 7
73 81 74 66 55 54 57 45 46 44 32 35 34 24 42 48 47 56 57 35 42 57 50 54 60 53 93 120 107 81 58 97 101 105 116 84 93 110 77 42 17 356 3
50 59 63 67 51 60 60 78 47 4 359 12 16 16 29 41 44 53 47 45 44 66 62 61 68 58 37 41 97 55 6 80 119 140 149 148 144 189 124 97 63 34 345
39 47 57 70 69 62 41 189 191 240 309 319 355 7 12 24 26 41 50 45 39 58 55 55 61 76 24 47 122 127 273 300 275 146 133 157 208 141 113 107 104 77 335
25 2 354 50 71 39 30 63 53 40 11 6 359 354 354 3 8 18 32 40 30 95 134 94 95 141 208 341 78 147 162 212 282 312 244 193 213 164 193 201 148 193 257
345 346 338 3 48 31 55 83 105 115 268 284 304 312 329 337 335 334 352 10 5 345 255 243 176 205 185 219 232 25 128 152 152 258 306 308 316 237 241 225 195 180 226
350 3 347 348 8 16 42 101 115 86 254 293 326 329 330 335 327 315 295 283 274 256 242 248 234 213 208 211 203 159 131 38 96 155 239 287 317 286 270 229 207 183 196
3 11 4 349 343 353 353 291 149 224 274 330 328 320 321 325 321 312 300 277 260 254 251 242 229 217 220 216 220 183 158 161 172 168 208 231 266 287 296 252 222 217 208